Date String (YYYY-MM-DD hh:mm:ss) UTC,Instrument flags,absolute air pressure of the measurement (hPa),sample flow rate (lpm),inlet stack bypass flow (lpm),air temperature of the measurement (°C),ambient temperature measured by the external sensor (°C),aerosol sample conditioner tube jacket temperature (°C),OPC LED temperature (°C),internal box temperature (°C),relative humidity of the measurement (%),span deviation,mass concentration of particles derived from Lorenz-Mie calculation of OPC scattering (μg/m³),mass concentration of particles derived from Lorenz-Mie calculation of OPC scattering (μg/m³),mass concentration of particles derived from Lorenz-Mie calculation of OPC scattering (μg/m³)
DateTimeUTC,F1_M11,P_M11,Q1_M11,Q2_M11,T1_M11,T2_M11,T3_M11,T4_M11,T5_M11,U1_M11,ZSPAN_M11,X2_M11,X0_M11,X1_M11
2024-05-03 13:00:00,SystemResetWarning,0823.5,5.01,000.00,022.4,021.8,000.0,030.7,024.2,014.8,0000.0,0003.72,0013.46,0002.55
2024-05-03 13:01:00,SystemResetWarning,0823.5,5.01,000.00,022.4,021.9,000.0,030.8,024.2,014.8,0000.0,0003.71,0013.25,0002.53
2024-05-03 13:02:00,SystemResetWarning,0823.5,5.01,000.00,022.4,021.9,000.0,030.8,024.2,016.1,0000.0,0003.68,0012.90,0002.51
2024-05-03 13:03:00,SystemResetWarning,0823.5,5.00,000.00,022.4,021.9,000.0,030.8,024.2,016.2,0000.0,0003.67,0011.97,0002.51
2024-05-03 13:04:00,SystemResetWarning,0823.5,5.00,000.00,022.4,021.9,000.0,030.8,024.2,017.1,0000.0,0003.70,0010.96,0002.52
2024-05-03 13:05:00,SystemResetWarning,0823.5,4.99,000.00,022.5,021.9,000.0,030.8,024.2,017.9,0000.0,0003.70,0009.90,0002.52
2024-05-03 13:06:00,SystemResetWarning,0823.5,4.99,000.00,022.5,021.9,000.0,030.8,024.2,017.7,0000.0,0003.74,0009.76,0002.52
2024-05-03 13:07:00,SystemResetWarning,0823.5,5.00,000.00,022.5,021.9,000.0,030.8,024.2,018.3,0000.0,0003.69,0009.79,0002.51
2024-05-03 13:08:00,SystemResetWarning,0823.4,5.01,000.00,022.5,021.9,000.0,030.8,024.3,018.9,0000.0,0003.66,0009.54,0002.49
2024-05-03 13:09:00,SystemResetWarning,0823.5,5.01,000.00,022.5,021.9,000.0,030.8,024.3,018.8,0000.0,0003.66,0009.53,0002.49
2024-05-03 13:10:00,SystemResetWarning,0823.5,5.00,000.00,022.5,021.9,000.0,030.8,024.3,018.3,0000.0,0003.68,0009.38,0002.52
2024-05-03 13:11:00,SystemResetWarning,0823.5,5.00,000.00,022.5,021.9,000.0,030.8,024.2,017.9,0000.0,0003.68,0009.03,0002.53
2024-05-03 13:12:00,SystemResetWarning,0823.5,4.99,000.00,022.5,022.0,000.0,030.9,024.3,017.3,0000.0,0003.69,0008.87,0002.54
2024-05-03 13:13:00,SystemResetWarning,0823.5,5.00,000.00,022.6,022.0,000.0,030.9,024.3,017.7,0000.0,0003.72,0008.88,0002.55
2024-05-03 13:14:00,SystemResetWarning,0823.5,5.01,000.00,022.6,022.0,000.0,030.9,024.3,018.3,0000.0,0003.73,0008.99,0002.56
2024-05-03 13:15:00,SystemResetWarning,0823.5,5.01,000.00,022.6,022.0,000.0,030.9,024.3,017.9,0000.0,0003.76,0009.36,0002.56
2024-05-03 13:16:00,SystemResetWarning,0823.4,4.99,000.00,022.6,022.0,000.0,030.9,024.3,017.3,0000.0,0003.74,0009.92,0002.57
2024-05-03 13:17:00,SystemResetWarning,0823.4,4.98,000.00,022.6,022.0,000.0,030.9,024.4,017.2,0000.0,0003.75,0010.51,0002.57
2024-05-03 13:18:00,SystemResetWarning,0823.4,5.01,000.00,022.6,022.0,000.0,030.9,024.3,016.3,0000.0,0003.78,0010.86,0002.59
2024-05-03 13:19:00,SystemResetWarning,0823.4,5.01,000.00,022.6,022.1,000.0,030.9,024.4,016.7,0000.0,0003.84,0011.32,0002.61
2024-05-03 13:20:00,SystemResetWarning,0823.4,5.00,000.00,022.6,022.1,000.0,030.9,024.5,016.2,0000.0,0003.86,0011.68,0002.63
2024-05-03 13:21:00,SystemResetWarning,0823.5,4.99,000.00,022.6,022.1,000.0,031.0,024.5,016.1,0000.0,0003.83,0011.59,0002.63
2024-05-03 13:22:00,SystemResetWarning,0823.5,4.99,000.00,022.7,022.1,000.0,031.0,024.5,016.0,0000.0,0003.85,0011.49,0002.63
2024-05-03 13:23:00,SystemResetWarning,0823.5,5.00,000.00,022.7,022.1,000.0,031.0,024.5,016.4,0000.0,0003.87,0011.90,0002.65
2024-05-03 13:24:00,SystemResetWarning,0823.5,5.01,000.00,022.7,022.1,000.0,031.0,024.5,016.3,0000.0,0003.86,0012.74,0002.66
2024-05-03 13:25:00,SystemResetWarning,0823.5,5.02,000.00,022.7,022.1,000.0,031.0,024.4,016.4,0000.0,0003.84,0012.75,0002.68
2024-05-03 13:26:00,SystemResetWarning,0823.4,5.01,000.00,022.7,022.1,000.0,031.0,024.5,016.4,0000.0,0003.82,0012.19,0002.69
2024-05-03 13:27:00,SystemResetWarning,0823.4,4.99,000.00,022.7,022.1,000.0,031.0,024.5,016.2,0000.0,0003.83,0011.66,0002.68
2024-05-03 13:28:00,SystemResetWarning,0823.4,5.00,000.00,022.7,022.1,000.0,031.0,024.4,015.4,0000.0,0003.80,0011.20,0002.69
2024-05-03 13:29:00,SystemResetWarning,0823.4,5.00,000.00,022.7,022.1,000.0,031.0,024.5,016.3,0000.0,0003.79,0011.17,0002.68
2024-05-03 13:30:00,SystemResetWarning,0823.5,5.00,000.00,022.7,022.1,000.0,031.0,024.5,016.3,0000.0,0003.75,0010.71,0002.66
2024-05-03 13:31:00,SystemResetWarning,0823.5,5.00,000.00,022.7,022.2,000.0,031.0,024.5,016.3,0000.0,0003.74,0010.58,0002.66
2024-05-03 13:32:00,SystemResetWarning,0823.4,5.00,000.00,022.8,022.2,000.0,031.0,024.5,016.9,0000.0,0003.73,0011.73,0002.65
2024-05-03 13:33:00,SystemResetWarning,0823.4,5.00,000.00,022.8,022.2,000.0,031.0,024.5,017.1,0000.0,0003.71,0011.74,0002.65
2024-05-03 13:34:00,SystemResetWarning,0823.4,5.00,000.00,022.8,022.2,000.0,031.1,024.5,016.9,0000.0,0003.67,0011.44,0002.63
2024-05-03 13:35:00,SystemResetWarning,0823.4,5.00,000.00,022.8,022.2,000.0,031.1,024.6,017.0,0000.0,0003.67,0010.42,0002.60
2024-05-03 13:36:00,SystemResetWarning,0823.4,5.00,000.00,022.8,022.2,000.0,031.1,024.5,017.0,0000.0,0003.67,0010.55,0002.57
2024-05-03 13:37:00,SystemResetWarning,0823.4,5.00,000.00,022.8,022.2,000.0,031.1,024.5,017.0,0000.0,0003.66,0010.51,0002.56
2024-05-03 13:38:00,SystemResetWarning,0823.3,5.00,000.00,022.8,022.2,000.0,031.1,024.5,017.1,0000.0,0003.70,0011.56,0002.56
2024-05-03 13:39:00,SystemResetWarning,0823.3,5.00,000.00,022.8,022.3,000.0,031.1,024.5,017.2,0000.0,0003.75,0012.24,0002.58
2024-05-03 13:40:00,SystemResetWarning,0823.3,5.00,000.00,022.8,022.3,000.0,031.1,024.6,016.9,0000.0,0003.73,0012.21,0002.57
2024-05-03 13:41:00,SystemResetWarning,0823.2,5.00,000.00,022.9,022.3,000.0,031.1,024.6,017.0,0000.0,0003.72,0011.97,0002.56
2024-05-03 13:42:00,SystemResetWarning,0823.3,5.00,000.00,022.9,022.3,000.0,031.1,024.6,017.0,0000.0,0003.77,0012.74,0002.57
2024-05-03 13:43:00,SystemResetWarning,0823.3,5.00,000.00,022.9,022.3,000.0,031.1,024.6,017.0,0000.0,0003.82,0012.47,0002.58
2024-05-03 13:44:00,SystemResetWarning,0823.3,5.00,000.00,022.9,022.3,000.0,031.2,024.7,017.0,0000.0,0003.88,0013.75,0002.58
2024-05-03 13:45:00,SystemResetWarning,0823.2,5.00,000.00,022.9,022.3,000.0,031.2,024.7,017.4,0000.0,0003.92,0014.51,0002.61
2024-05-03 13:46:00,SystemResetWarning,0823.2,5.00,000.00,022.9,022.4,000.0,031.2,024.8,017.2,0000.0,0003.91,0014.75,0002.63
2024-05-03 13:47:00,SystemResetWarning,0823.2,5.00,000.00,022.9,022.4,000.0,031.2,024.8,017.2,0000.0,0003.89,0014.70,0002.64
2024-05-03 13:48:00,SystemResetWarning,0823.1,5.00,000.00,022.9,022.4,000.0,031.2,024.8,017.5,0000.0,0003.90,0014.50,0002.64
2024-05-03 13:49:00,SystemResetWarning,0823.2,4.99,000.00,022.9,022.4,000.0,031.3,024.7,017.0,0000.0,0003.90,0014.50,0002.64
2024-05-03 13:50:00,SystemResetWarning,0823.1,5.00,000.00,022.9,022.4,000.0,031.3,024.7,017.0,0000.0,0003.88,0014.39,0002.61
2024-05-03 13:51:00,SystemResetWarning,0823.1,5.01,000.00,023.0,022.4,000.0,031.3,024.7,017.0,0000.0,0003.89,0014.99,0002.61
2024-05-03 13:52:00,SystemResetWarning,0823.1,5.01,000.00,023.0,022.4,000.0,031.3,024.8,018.0,0000.0,0003.90,0014.96,0002.61
2024-05-03 13:53:00,SystemResetWarning,0823.1,4.99,000.00,023.0,022.4,000.0,031.3,024.8,017.8,0000.0,0003.84,0014.37,0002.61
2024-05-03 13:54:00,SystemResetWarning,0823.0,4.99,000.00,023.0,022.4,000.0,031.3,024.8,017.5,0000.0,0003.83,0014.54,0002.62
2024-05-03 13:55:00,SystemResetWarning,0823.1,5.01,000.00,023.0,022.4,000.0,031.3,024.8,016.5,0000.0,0003.82,0013.68,0002.63
2024-05-03 13:56:00,SystemResetWarning,0823.0,5.00,000.00,023.0,022.4,000.0,031.4,024.9,017.3,0000.0,0003.82,0013.08,0002.62
2024-05-03 13:57:00,SystemResetWarning,0823.0,5.00,000.00,023.0,022.4,000.0,031.4,024.9,017.7,0000.0,0003.85,0013.39,0002.61
2024-05-03 13:58:00,SystemResetWarning,0823.0,5.01,000.00,023.0,022.4,000.0,031.4,024.8,017.6,0000.0,0003.90,0013.84,0002.63
2024-05-03 13:59:00,SystemResetWarning,0823.0,5.01,000.00,023.0,022.4,000.0,031.4,024.8,016.6,0000.0,0003.88,0013.80,0002.63
